Starlink 31844

operational
NORAD ID: 60583 Int'l Des: 2024-150 Owner: SPXS Country: US Constellation: starlink
LEOCIRCULAR

About Starlink 31844

Description loading...

Live Position

Loading 3D Globe...

Upcoming Passes

Altitude History

Altitude vs Time

uPlot chart will show altitude changes over time

Two-Line Element Set

1 60583U 24150A 25353.14347405 .00000543 00000-0 30461-4 0 9990
2 60583 53.1618 320.8558 0001404 104.0809 256.0348 15.30193635 75714
Epoch: Dec 19, 2025 • Age: 10 hours

Current Status

Altitude 476.8 km
Velocity 7.63 km/s
Sub-Earth Point 34.00°N, 178.77°E
Launch Date Aug 20, 2024
Age 1.3 years
Type internet

Technical Details

Classification Payload
Mass 730.00 kg
Dry Mass 700.00 kg
Total Mass 730.00 kg
Length 0.30 m
Diameter 4.10 m
Span 29.00 m
Shape Box + pan
Manufacturer SPXS
Bus Type Starlink V2M
Phase Status In Orbit
Owner/State SPXS/US

Large Constellations

Loading constellations...